Time[GMT],gps_lat[degrees_north](-3m),gps_lon[degrees_west](-3m),gps_2_lat[degrees_north](-3m),gps_2_lon[degrees_west](-3m)
2019-06-01 02:00,42.523468018,-70.564964294,42.52,-70.56
2019-06-01 03:00,42.523448944,-70.564880371,42.52,-70.57
2019-06-01 04:00,42.523384094,-70.564819336,42.52,-70.57
2019-06-01 05:00,42.523365021,-70.564781189,42.52,-70.57
2019-06-01 06:00,42.523418427,-70.564819336,42.52,-70.57
2019-06-01 07:00,42.523384094,-70.564819336,42.52,-70.57
2019-06-01 08:00,42.523334503,-70.564849854,42.52,-70.55
2019-06-01 09:00,42.523284912,-70.564933777,42.52,-70.57
2019-06-01 10:00,42.523284912,-70.564949036,42.52,-70.57
2019-06-01 11:00,42.523300171,-70.564964294,42.52,-70.57
2019-06-01 12:00,42.523231506,-70.564964294,42.52,-70.57
2019-06-01 13:00,42.523231506,-70.565017700,42.52,-70.57
2019-06-01 14:00,42.523216248,-70.565032959,42.52,-70.57
2019-06-01 15:00,42.523250580,-70.565086365,42.52,-70.57
2019-06-01 16:00,42.523231506,-70.565017700,42.52,-70.57
2019-06-01 17:00,42.523231506,-70.565002441,42.52,-70.57
2019-06-01 18:00,42.523216248,-70.565017700,42.52,-70.57
2019-06-01 19:00,42.523216248,-70.565048218,42.52,-70.57
2019-06-01 20:00,42.523250580,-70.565048218,42.52,-70.57
2019-06-01 21:00,42.523265839,-70.565147400,42.52,-70.57
2019-06-01 22:00,42.523349762,-70.565170288,42.52,-70.57
2019-06-01 23:00,42.523315430,-70.565147400,42.52,-70.57
2019-06-02 00:00,42.523315430,-70.565200806,42.52,-70.57
2019-06-02 01:00,42.523284912,-70.565231323,42.52,-70.57
2019-06-02 02:00,42.523315430,-70.565185547,42.52,-70.57
2019-06-02 03:00,42.523300171,-70.565101624,42.52,-70.57
2019-06-02 04:00,42.523300171,-70.565017700,42.52,-70.57
2019-06-02 05:00,42.523300171,-70.565002441,42.52,-70.57
2019-06-02 06:00,42.523250580,-70.564979553,42.52,-70.57
2019-06-02 07:00,42.523250580,-70.564979553,42.52,-70.57
2019-06-02 08:00,42.523265839,-70.565017700,42.52,-70.57
2019-06-02 09:00,42.523250580,-70.565063477,42.52,-70.57
2019-06-02 10:00,42.523250580,-70.565147400,42.52,-70.57
2019-06-02 11:00,42.523250580,-70.565216064,42.52,-70.57
2019-06-02 12:00,42.523265839,-70.565185547,42.52,-70.57
2019-06-02 13:00,42.523265839,-70.565170288,42.52,-70.57
2019-06-02 14:00,42.523265839,-70.565147400,42.52,-70.57
2019-06-02 15:00,42.523250580,-70.565116882,42.52,-70.57
2019-06-02 16:00,42.523231506,-70.565063477,42.52,-70.57
2019-06-02 17:00,42.523216248,-70.565063477,42.52,-70.56
2019-06-02 18:00,42.523250580,-70.565147400,42.52,-70.57
2019-06-02 19:00,42.523265839,-70.565200806,42.52,-70.57
2019-06-02 20:00,42.523284912,-70.565200806,42.52,-70.57
2019-06-02 21:00,42.523349762,-70.565299988,42.52,-70.57
2019-06-02 22:00,42.523349762,-70.565498352,42.52,-70.57
2019-06-02 23:00,42.523200989,-70.565567017,42.52,-70.57
2019-06-03 00:00,42.523250580,-70.565650940,42.52,-70.57
2019-06-03 01:00,42.523300171,-70.565650940,42.52,-70.57
2019-06-03 02:00,42.523300171,-70.565582275,42.52,-70.57
2019-06-03 03:00,42.523250580,-70.565467834,42.52,-70.57
2019-06-03 04:00,42.523250580,-70.565383911,42.52,-70.57
2019-06-03 05:00,42.523200989,-70.565246582,42.52,-70.57
2019-06-03 06:00,42.523166656,-70.565200806,42.52,-70.57
2019-06-03 07:00,42.523132324,-70.565063477,42.52,-70.57
2019-06-03 08:00,42.523166656,-70.565017700,42.52,-70.57
2019-06-03 09:00,42.523200989,-70.565048218,42.52,-70.57
2019-06-03 10:00,42.523181915,-70.565132141,42.52,-70.57
2019-06-03 11:00,42.523166656,-70.565185547,42.52,-70.57
2019-06-03 12:00,42.523166656,-70.565132141,42.52,-70.57
2019-06-03 13:00,42.523166656,-70.565101624,42.52,-70.57
2019-06-03 14:00,42.523200989,-70.565246582,42.52,-70.57
2019-06-03 15:00,42.523200989,-70.565216064,42.52,-70.57
2019-06-03 16:00,42.523166656,-70.565200806,42.52,-70.57
2019-06-03 17:00,42.523250580,-70.565048218,42.52,-70.57
2019-06-03 18:00,42.523250580,-70.565086365,42.52,-70.57
2019-06-03 19:00,42.523166656,-70.564918518,42.52,-70.57
2019-06-03 20:00,42.523200989,-70.564918518,42.52,-70.56
2019-06-03 21:00,42.523265839,-70.564933777,42.52,-70.57
2019-06-03 22:00,42.523200989,-70.564918518,42.52,-70.57
2019-06-03 23:00,42.523166656,-70.564933777,42.52,-70.57
2019-06-04 00:00,42.523101807,-70.564949036,42.52,-70.57
2019-06-04 01:00,42.523048401,-70.565132141,42.52,-70.57
2019-06-04 02:00,42.523048401,-70.565116882,42.52,-70.57
2019-06-04 03:00,42.523048401,-70.565200806,42.52,-70.57
2019-06-04 04:00,42.523082733,-70.565185547,42.52,-70.57
2019-06-04 05:00,42.523132324,-70.565063477,42.52,-70.57
2019-06-04 06:00,42.523181915,-70.564979553,42.52,-70.57
2019-06-04 07:00,42.523231506,-70.564964294,42.52,-70.57
2019-06-04 08:00,42.523181915,-70.565017700,42.52,-70.57
2019-06-04 09:00,42.525932312,-70.565299988,42.52,-70.57
2019-06-04 10:00,42.523250580,-70.565017700,42.52,-70.57
2019-06-04 11:00,42.523200989,-70.565132141,42.52,-70.57
2019-06-04 12:00,42.523200989,-70.565063477,42.52,-70.57
2019-06-04 13:00,42.523216248,-70.565048218,42.52,-70.57
2019-06-04 14:00,42.523200989,-70.565032959,42.52,-70.57
2019-06-04 15:00,42.523166656,-70.565032959,42.52,-70.57
2019-06-04 16:00,42.523216248,-70.565048218,42.52,-70.57
2019-06-04 17:00,42.523231506,-70.565017700,42.52,-70.57
2019-06-04 18:00,42.523231506,-70.565032959,42.52,-70.57
2019-06-04 19:00,42.523250580,-70.565017700,42.52,-70.57
2019-06-04 20:00,42.523250580,-70.565002441,42.52,-70.57
2019-06-04 21:00,42.523284912,-70.565048218,42.52,-70.57
2019-06-04 22:00,42.523284912,-70.565063477,42.52,-70.57
2019-06-04 23:00,42.523284912,-70.565132141,42.52,-70.57
2019-06-05 00:00,42.523265839,-70.565170288,42.52,-70.57
2019-06-05 01:00,42.523231506,-70.565170288,42.52,-70.57
2019-06-05 02:00,42.523216248,-70.565246582,42.52,-70.57
2019-06-05 03:00,42.523166656,-70.565200806,42.52,-70.57
2019-06-05 04:00,42.523166656,-70.565185547,42.52,-70.57
2019-06-05 05:00,42.523151398,-70.565116882,42.52,-70.57
2019-06-05 06:00,42.523166656,-70.565116882,42.52,-70.57
2019-06-05 07:00,42.523250580,-70.565017700,42.52,-70.57
2019-06-05 08:00,42.523265839,-70.565017700,42.52,-70.57
2019-06-05 09:00,42.523334503,-70.565002441,42.52,-70.57
2019-06-05 10:00,42.523448944,-70.564979553,42.52,-70.57
2019-06-05 11:00,42.523433685,-70.564918518,42.52,-70.57
2019-06-05 12:00,42.523448944,-70.564933777,42.52,-70.57
2019-06-05 13:00,42.523349762,-70.564918518,42.52,-70.57
2019-06-05 14:00,42.523315430,-70.564933777,42.52,-70.57
2019-06-05 15:00,42.523250580,-70.564949036,42.52,-70.57
2019-06-05 16:00,42.523200989,-70.565002441,42.52,-70.57
2019-06-05 17:00,42.523200989,-70.565002441,42.52,-70.56
2019-06-05 18:00,42.523216248,-70.565017700,42.52,-70.57
2019-06-05 19:00,42.523300171,-70.565017700,42.52,-70.57
2019-06-05 20:00,42.523300171,-70.565002441,42.52,-70.57
2019-06-05 21:00,42.523399353,-70.565017700,42.52,-70.57
2019-06-05 22:00,42.523399353,-70.565032959,42.52,-70.57
2019-06-05 23:00,42.523433685,-70.565086365,42.52,-70.57
2019-06-06 00:00,42.523418427,-70.565170288,42.52,-70.57
2019-06-06 01:00,42.523448944,-70.565216064,42.52,-70.57
2019-06-06 02:00,42.523399353,-70.565185547,42.52,-70.57
2019-06-06 03:00,42.523384094,-70.565216064,42.52,-70.57
2019-06-06 04:00,42.523349762,-70.565170288,42.52,-70.57
2019-06-06 05:00,42.523265839,-70.565048218,42.52,-70.57
2019-06-06 06:00,42.523216248,-70.565017700,42.52,-70.57
2019-06-06 07:00,42.523200989,-70.565002441,42.52,-70.57
2019-06-06 08:00,42.523151398,-70.564979553,42.52,-70.57
2019-06-06 09:00,42.523166656,-70.565017700,42.52,-70.57
2019-06-06 10:00,42.523315430,-70.565002441,42.52,-70.57
2019-06-06 11:00,42.523365021,-70.565086365,42.52,-70.57
2019-06-06 12:00,42.523418427,-70.565116882,42.52,-70.57
2019-06-06 13:00,42.523399353,-70.565132141,42.52,-70.57
2019-06-06 14:00,42.523200989,-70.565216064,42.52,-70.57
2019-06-06 15:00,42.523117065,-70.565185547,42.52,-70.57
2019-06-06 16:00,42.523082733,-70.565216064,42.52,-70.57
2019-06-06 17:00,42.523082733,-70.565330505,42.51,-70.55
2019-06-06 18:00,42.523250580,-70.565567017,42.52,-70.57
2019-06-06 19:00,42.523117065,-70.565513611,42.52,-70.55
2019-06-06 20:00,42.523132324,-70.565513611,42.52,-70.57
2019-06-06 21:00,42.523117065,-70.565467834,42.52,-70.57
2019-06-06 22:00,42.523151398,-70.565452576,42.52,-70.57
2019-06-06 23:00,42.523151398,-70.565429688,42.52,-70.57
2019-06-07 00:00,42.523117065,-70.565467834,42.52,-70.57
2019-06-07 01:00,42.523117065,-70.565551758,42.52,-70.57
2019-06-07 02:00,42.523151398,-70.565551758,42.52,-70.57
2019-06-07 03:00,42.523132324,-70.565551758,42.52,-70.57
2019-06-07 04:00,42.523117065,-70.565536499,42.52,-70.57
2019-06-07 05:00,42.523132324,-70.565483093,42.52,-70.57
2019-06-07 06:00,42.523132324,-70.565414429,42.52,-70.57
2019-06-07 07:00,42.523117065,-70.565383911,42.52,-70.57
2019-06-07 08:00,42.523082733,-70.565330505,42.52,-70.57
2019-06-07 09:00,42.523067474,-70.565330505,42.52,-70.57
2019-06-07 10:00,42.523017883,-70.565353394,42.52,-70.57
2019-06-07 11:00,42.523033142,-70.565353394,42.52,-70.57
2019-06-07 12:00,42.522983551,-70.565467834,42.52,-70.57
2019-06-07 13:00,42.523033142,-70.565620422,42.52,-70.57
2019-06-07 14:00,42.523067474,-70.565635681,42.52,-70.57
2019-06-07 15:00,42.523082733,-70.565635681,42.52,-70.57
2019-06-07 16:00,42.523067474,-70.565597534,42.52,-70.57
2019-06-07 17:00,42.523082733,-70.565567017,42.52,-70.57
2019-06-07 18:00,42.523101807,-70.565597534,42.52,-70.57
2019-06-07 19:00,42.523117065,-70.565567017,42.52,-70.57
2019-06-07 20:00,42.523132324,-70.565513611,42.52,-70.57
2019-06-07 21:00,42.523181915,-70.565513611,42.52,-70.57
2019-06-07 22:00,42.523200989,-70.565498352,42.52,-70.57
2019-06-07 23:00,42.523117065,-70.565399170,42.52,-70.57
2019-06-08 00:00,42.523284912,-70.565536499,42.52,-70.57
2019-06-08 01:00,42.523315430,-70.565467834,42.52,-70.57
2019-06-08 02:00,42.523284912,-70.565452576,42.52,-70.55
2019-06-08 03:00,42.523284912,-70.565452576,42.52,-70.57
2019-06-08 04:00,42.523231506,-70.565498352,42.52,-70.57
2019-06-08 05:00,42.523200989,-70.565414429,42.52,-70.57
2019-06-08 06:00,42.523132324,-70.565399170,42.52,-70.57
2019-06-08 07:00,42.522983551,-70.565383911,42.52,-70.57
2019-06-08 08:00,42.522949219,-70.565330505,42.52,-70.57
2019-06-08 09:00,42.522914886,-70.565330505,42.52,-70.57
2019-06-08 10:00,42.522914886,-70.565368652,42.52,-70.57
2019-06-08 11:00,42.522914886,-70.565399170,42.52,-70.57
2019-06-08 12:00,42.522914886,-70.565467834,42.52,-70.57
2019-06-08 13:00,42.523017883,-70.565620422,42.52,-70.57
2019-06-08 14:00,42.523101807,-70.565750122,42.52,-70.57
2019-06-08 15:00,42.523132324,-70.565696716,42.52,-70.57
2019-06-08 16:00,42.523117065,-70.565620422,42.52,-70.57
2019-06-08 17:00,42.523132324,-70.565567017,42.52,-70.57
2019-06-08 18:00,42.523166656,-70.565551758,42.52,-70.57
2019-06-08 19:00,42.523166656,-70.565513611,42.52,-70.57
2019-06-08 20:00,42.523200989,-70.565452576,42.52,-70.57
2019-06-08 21:00,42.523265839,-70.565315247,42.52,-70.57
2019-06-08 22:00,42.523181915,-70.565216064,42.52,-70.57
2019-06-08 23:00,42.523151398,-70.565170288,42.52,-70.57
2019-06-09 00:00,42.523132324,-70.565170288,42.52,-70.57
2019-06-09 01:00,42.523101807,-70.565147400,42.52,-70.57
2019-06-09 02:00,42.523117065,-70.565246582,42.52,-70.57
2019-06-09 03:00,42.523101807,-70.565284729,42.52,-70.57
2019-06-09 04:00,42.523101807,-70.565399170,42.52,-70.57
2019-06-09 05:00,42.523101807,-70.565399170,42.52,-70.57
2019-06-09 06:00,42.523132324,-70.565383911,42.52,-70.57
2019-06-09 07:00,42.523082733,-70.565353394,42.52,-70.57
2019-06-09 08:00,42.523117065,-70.565330505,42.52,-70.57
2019-06-09 09:00,42.523117065,-70.565299988,42.52,-70.57
2019-06-09 10:00,42.523117065,-70.565269470,42.52,-70.57
2019-06-09 11:00,42.523101807,-70.565231323,42.52,-70.57
2019-06-09 12:00,42.523101807,-70.565246582,42.52,-70.57
2019-06-09 13:00,42.523200989,-70.565246582,42.52,-70.57
2019-06-09 14:00,42.523181915,-70.565284729,42.52,-70.57
2019-06-09 15:00,42.523166656,-70.565299988,42.52,-70.57
2019-06-09 16:00,42.523200989,-70.565330505,42.52,-70.57
2019-06-09 17:00,42.523216248,-70.565368652,42.52,-70.57
2019-06-09 18:00,42.523284912,-70.565315247,42.52,-70.57
2019-06-09 19:00,42.523231506,-70.565315247,42.52,-70.57
2019-06-09 20:00,42.523231506,-70.565330505,42.52,-70.57
2019-06-09 21:00,42.523284912,-70.565315247,42.52,-70.57
2019-06-09 22:00,42.523250580,-70.565216064,42.52,-70.57
2019-06-09 23:00,42.523265839,-70.565216064,42.52,-70.57
2019-06-10 00:00,42.523216248,-70.565170288,42.52,-70.57
2019-06-10 01:00,42.523216248,-70.565170288,42.52,-70.57
2019-06-10 02:00,42.523181915,-70.565147400,42.52,-70.57
2019-06-10 03:00,42.523200989,-70.565170288,42.52,-70.57
2019-06-10 04:00,42.523200989,-70.565170288,42.52,-70.57
2019-06-10 05:00,42.523181915,-70.565200806,42.52,-70.57
2019-06-10 06:00,42.523181915,-70.565231323,42.52,-70.57
2019-06-10 07:00,42.523132324,-70.565284729,42.52,-70.57
2019-06-10 08:00,42.523117065,-70.565284729,42.52,-70.57
2019-06-10 09:00,42.523132324,-70.565246582,42.52,-70.57
2019-06-10 10:00,42.523216248,-70.565246582,42.52,-70.57
2019-06-10 11:00,42.523166656,-70.565216064,42.52,-70.57
2019-06-10 12:00,42.523166656,-70.565185547,42.52,-70.57
2019-06-10 13:00,42.523181915,-70.565200806,42.52,-70.57
2019-06-10 14:00,42.523166656,-70.565216064,42.52,-70.57
2019-06-10 15:00,42.523200989,-70.565284729,42.52,-70.57
2019-06-10 16:00,42.523231506,-70.565315247,42.52,-70.57
2019-06-10 17:00,42.523216248,-70.565353394,42.52,-70.57
2019-06-10 18:00,42.523231506,-70.565414429,42.52,-70.57
2019-06-10 19:00,,,,
2019-06-10 20:00,42.523250580,-70.565452576,42.52,-70.57
2019-06-10 21:00,42.523284912,-70.565414429,42.52,-70.57
2019-06-10 22:00,42.523265839,-70.565368652,42.52,-70.57
2019-06-10 23:00,42.523250580,-70.565299988,42.52,-70.57
2019-06-11 00:00,42.523231506,-70.565246582,42.52,-70.57
2019-06-11 01:00,42.523250580,-70.565269470,42.52,-70.57
2019-06-11 02:00,42.523250580,-70.565299988,42.52,-70.57
2019-06-11 03:00,42.523250580,-70.565330505,42.52,-70.57
2019-06-11 04:00,42.523265839,-70.565452576,42.52,-70.57
2019-06-11 05:00,42.523284912,-70.565467834,42.52,-70.57
2019-06-11 06:00,42.523265839,-70.565467834,42.52,-70.57
2019-06-11 07:00,42.523250580,-70.565467834,42.52,-70.57
2019-06-11 08:00,42.523216248,-70.565467834,42.52,-70.57
2019-06-11 09:00,42.523265839,-70.565498352,42.52,-70.57
2019-06-11 10:00,42.523384094,-70.565536499,42.52,-70.57
2019-06-11 11:00,42.523399353,-70.565429688,42.52,-70.57
2019-06-11 12:00,42.523418427,-70.565353394,42.52,-70.57
2019-06-11 13:00,42.523384094,-70.565269470,42.52,-70.57
2019-06-11 14:00,42.523334503,-70.565216064,42.52,-70.57
2019-06-11 15:00,42.523315430,-70.565170288,42.52,-70.57
2019-06-11 16:00,42.523315430,-70.565200806,42.52,-70.57
2019-06-11 17:00,42.523250580,-70.565216064,42.52,-70.57
2019-06-11 18:00,42.523132324,-70.565231323,42.52,-70.57
2019-06-11 19:00,42.523082733,-70.565315247,42.52,-70.57
2019-06-11 20:00,42.523082733,-70.565368652,42.52,-70.57
2019-06-11 21:00,42.523048401,-70.565429688,42.52,-70.57
2019-06-11 22:00,42.523048401,-70.565353394,42.52,-70.57
2019-06-11 23:00,42.523067474,-70.565399170,42.52,-70.57
2019-06-12 00:00,42.522914886,-70.565353394,42.52,-70.57
2019-06-12 01:00,42.522968292,-70.565383911,42.52,-70.57
2019-06-12 02:00,42.522968292,-70.565353394,42.52,-70.57
2019-06-12 03:00,42.523017883,-70.565429688,42.52,-70.57
2019-06-12 04:00,42.523082733,-70.565429688,42.52,-70.57
2019-06-12 05:00,42.523101807,-70.565467834,42.52,-70.57
2019-06-12 06:00,42.523151398,-70.565399170,42.52,-70.57
2019-06-12 07:00,42.523117065,-70.565368652,42.52,-70.57
2019-06-12 08:00,42.523082733,-70.565299988,42.52,-70.57
2019-06-12 09:00,42.523082733,-70.565299988,42.52,-70.57
2019-06-12 10:00,42.523067474,-70.565216064,42.52,-70.57
2019-06-12 11:00,42.523067474,-70.565231323,42.52,-70.57
2019-06-12 12:00,42.523017883,-70.565216064,42.52,-70.57
2019-06-12 13:00,42.522998810,-70.565246582,42.52,-70.57
2019-06-12 14:00,42.522998810,-70.565315247,42.52,-70.57
2019-06-12 15:00,42.522998810,-70.565399170,42.52,-70.57
2019-06-12 16:00,42.523033142,-70.565353394,42.52,-70.57
2019-06-12 17:00,42.523082733,-70.565399170,42.52,-70.57
2019-06-12 18:00,42.523132324,-70.565452576,42.52,-70.57
2019-06-12 19:00,42.523166656,-70.565567017,42.52,-70.57
2019-06-12 20:00,42.523231506,-70.565567017,42.52,-70.57
2019-06-12 21:00,42.523334503,-70.565597534,42.52,-70.57
2019-06-12 22:00,42.523334503,-70.565582275,42.52,-70.57
2019-06-12 23:00,42.523315430,-70.565551758,42.52,-70.57
2019-06-13 00:00,42.523433685,-70.565483093,42.52,-70.57
2019-06-13 01:00,42.523498535,-70.565299988,42.52,-70.57
2019-06-13 02:00,42.523448944,-70.565200806,42.52,-70.57
2019-06-13 03:00,42.523418427,-70.565132141,42.52,-70.57
2019-06-13 04:00,42.523349762,-70.565101624,42.52,-70.57
2019-06-13 05:00,42.523349762,-70.565116882,42.52,-70.57
2019-06-13 06:00,42.523231506,-70.565132141,42.52,-70.57
2019-06-13 07:00,42.523181915,-70.565200806,42.52,-70.57
2019-06-13 08:00,42.523200989,-70.565216064,42.52,-70.57
2019-06-13 09:00,42.523216248,-70.565299988,42.52,-70.57
2019-06-13 10:00,42.523231506,-70.565399170,42.52,-70.57
2019-06-13 11:00,42.523334503,-70.565635681,42.52,-70.57
2019-06-13 12:00,42.523315430,-70.565620422,42.52,-70.57
2019-06-13 13:00,42.523384094,-70.565635681,42.52,-70.57
2019-06-13 14:00,42.523399353,-70.565650940,42.52,-70.57
2019-06-13 15:00,42.523532867,-70.565681458,42.52,-70.57
2019-06-13 16:00,42.523567200,-70.565666199,42.52,-70.57
2019-06-13 17:00,42.523548126,-70.565696716,42.52,-70.57
2019-06-13 18:00,42.523448944,-70.565696716,42.52,-70.57
2019-06-13 19:00,42.523300171,-70.565734863,42.52,-70.57
2019-06-13 20:00,42.523265839,-70.565803528,42.52,-70.57
2019-06-13 21:00,42.523231506,-70.565696716,42.52,-70.57
2019-06-13 22:00,42.523181915,-70.565666199,42.52,-70.57
2019-06-13 23:00,42.523082733,-70.565551758,42.52,-70.57
2019-06-14 00:00,42.523101807,-70.565536499,42.52,-70.57
2019-06-14 01:00,42.523017883,-70.565429688,42.52,-70.57
2019-06-14 02:00,42.523033142,-70.565299988,42.52,-70.57
2019-06-14 03:00,42.523067474,-70.565299988,42.52,-70.57
2019-06-14 04:00,42.523048401,-70.565353394,42.52,-70.57
2019-06-14 05:00,42.523117065,-70.565399170,42.52,-70.57
2019-06-14 06:00,42.523200989,-70.565399170,42.52,-70.57
2019-06-14 07:00,42.523250580,-70.565513611,42.52,-70.57
2019-06-14 08:00,42.523399353,-70.565582275,42.52,-70.57
2019-06-14 09:00,42.523418427,-70.565498352,42.52,-70.57
2019-06-14 10:00,42.523433685,-70.565483093,42.52,-70.57
2019-06-14 11:00,42.523399353,-70.565467834,42.52,-70.57
2019-06-14 12:00,42.523349762,-70.565414429,42.52,-70.57
2019-06-14 13:00,42.523349762,-70.565414429,42.52,-70.57
2019-06-14 14:00,42.523315430,-70.565368652,42.52,-70.57
2019-06-14 15:00,42.523300171,-70.565330505,42.52,-70.57
2019-06-14 16:00,42.523315430,-70.565353394,42.52,-70.57
2019-06-14 17:00,42.523315430,-70.565353394,42.52,-70.57
2019-06-14 18:00,42.523284912,-70.565368652,42.52,-70.57
2019-06-14 19:00,42.523315430,-70.565452576,42.52,-70.57
2019-06-14 20:00,42.523365021,-70.565399170,42.52,-70.57
2019-06-14 21:00,42.523315430,-70.565467834,42.52,-70.57
2019-06-14 22:00,42.523250580,-70.565299988,42.52,-70.57
2019-06-14 23:00,42.523250580,-70.565246582,42.52,-70.57
2019-06-15 00:00,42.523250580,-70.565231323,42.52,-70.57
2019-06-15 01:00,42.523181915,-70.565216064,42.52,-70.57
2019-06-15 02:00,42.523151398,-70.565246582,42.52,-70.57
2019-06-15 03:00,42.523151398,-70.565246582,42.52,-70.57
2019-06-15 04:00,42.523151398,-70.565246582,42.52,-70.57
2019-06-15 05:00,42.523132324,-70.565315247,42.52,-70.57
2019-06-15 06:00,42.523166656,-70.565330505,42.52,-70.57
2019-06-15 07:00,42.523166656,-70.565399170,42.52,-70.57
2019-06-15 08:00,42.523265839,-70.565536499,42.52,-70.57
2019-06-15 09:00,42.523216248,-70.565681458,42.52,-70.57
2019-06-15 10:00,42.523265839,-70.565666199,42.52,-70.57
2019-06-15 11:00,42.523250580,-70.565597534,42.52,-70.57
2019-06-15 12:00,42.523300171,-70.565498352,42.52,-70.57
2019-06-15 13:00,42.523216248,-70.565498352,42.52,-70.57
2019-06-15 14:00,42.523250580,-70.565467834,42.52,-70.57
2019-06-15 15:00,42.523250580,-70.565429688,42.52,-70.57
2019-06-15 16:00,42.523231506,-70.565383911,42.52,-70.57
2019-06-15 17:00,42.523231506,-70.565383911,42.52,-70.57
2019-06-15 18:00,42.523284912,-70.565452576,42.52,-70.57
2019-06-15 19:00,42.523300171,-70.565467834,42.52,-70.57
2019-06-15 20:00,42.523349762,-70.565498352,42.52,-70.57
2019-06-15 21:00,42.523448944,-70.565429688,42.52,-70.57
2019-06-15 22:00,42.523498535,-70.565429688,42.52,-70.57
2019-06-15 23:00,42.523483276,-70.565467834,42.52,-70.57
2019-06-16 00:00,42.523483276,-70.565414429,42.52,-70.57
2019-06-16 01:00,42.523418427,-70.565498352,42.52,-70.57
2019-06-16 02:00,42.523384094,-70.565315247,42.52,-70.57
2019-06-16 03:00,42.523384094,-70.565170288,42.52,-70.57
2019-06-16 04:00,42.523334503,-70.565147400,42.52,-70.57
2019-06-16 05:00,42.523300171,-70.565132141,42.52,-70.57
2019-06-16 06:00,42.523216248,-70.565132141,42.52,-70.57
2019-06-16 07:00,42.523216248,-70.565132141,42.52,-70.57
2019-06-16 08:00,42.523250580,-70.565132141,42.52,-70.57
2019-06-16 09:00,42.523250580,-70.565132141,42.52,-70.57
2019-06-16 10:00,42.523250580,-70.565216064,42.52,-70.57
2019-06-16 11:00,42.523231506,-70.565315247,42.52,-70.57
2019-06-16 12:00,42.523231506,-70.565452576,42.52,-70.57
2019-06-16 13:00,42.523250580,-70.565597534,42.52,-70.57
2019-06-16 14:00,42.523300171,-70.565567017,42.52,-70.57
2019-06-16 15:00,42.523284912,-70.565513611,42.52,-70.57
2019-06-16 16:00,42.523334503,-70.565429688,42.52,-70.57
2019-06-16 17:00,42.523349762,-70.565368652,42.52,-70.57
2019-06-16 18:00,42.523365021,-70.565353394,42.52,-70.57
2019-06-16 19:00,42.523365021,-70.565330505,42.52,-70.57
2019-06-16 20:00,42.523365021,-70.565353394,42.52,-70.57
2019-06-16 21:00,42.523349762,-70.565368652,42.52,-70.57
2019-06-16 22:00,42.523315430,-70.565353394,42.52,-70.57
2019-06-16 23:00,42.523265839,-70.565467834,42.52,-70.57
2019-06-17 00:00,42.523300171,-70.565429688,42.52,-70.57
2019-06-17 01:00,42.523250580,-70.565452576,42.52,-70.57
2019-06-17 02:00,42.523181915,-70.565452576,42.52,-70.57
2019-06-17 03:00,42.523151398,-70.565399170,42.52,-70.57
2019-06-17 04:00,42.523181915,-70.565368652,42.52,-70.57
2019-06-17 05:00,42.523216248,-70.565315247,42.52,-70.57
2019-06-17 06:00,42.523231506,-70.565315247,42.52,-70.57
2019-06-17 07:00,42.523216248,-70.565299988,42.52,-70.57
2019-06-17 08:00,42.523132324,-70.565269470,42.52,-70.57
2019-06-17 09:00,42.523231506,-70.565284729,42.52,-70.57
2019-06-17 10:00,42.523181915,-70.565284729,42.52,-70.57
2019-06-17 11:00,42.523117065,-70.565368652,42.52,-70.57
2019-06-17 12:00,42.523151398,-70.565399170,42.52,-70.57
2019-06-17 13:00,42.523151398,-70.565399170,42.52,-70.55
2019-06-17 14:00,42.523101807,-70.565399170,42.52,-70.57
2019-06-17 15:00,42.523151398,-70.565368652,42.52,-70.57
2019-06-17 16:00,42.523166656,-70.565368652,42.52,-70.57
2019-06-17 17:00,42.523200989,-70.565330505,42.52,-70.57
2019-06-17 18:00,42.523200989,-70.565353394,42.52,-70.57
2019-06-17 19:00,42.523200989,-70.565315247,42.52,-70.57
2019-06-17 20:00,42.523216248,-70.565299988,42.52,-70.57
2019-06-17 21:00,42.523231506,-70.565315247,42.52,-70.57
2019-06-17 22:00,42.523265839,-70.565368652,42.52,-70.57
2019-06-17 23:00,42.523384094,-70.565414429,42.52,-70.57
2019-06-18 00:00,42.523349762,-70.565414429,42.52,-70.57
2019-06-18 01:00,42.523349762,-70.565383911,42.52,-70.57
2019-06-18 02:00,42.523265839,-70.565315247,42.52,-70.57
2019-06-18 03:00,42.523231506,-70.565231323,42.52,-70.57
2019-06-18 04:00,42.523200989,-70.565147400,42.52,-70.57
2019-06-18 05:00,42.523181915,-70.565147400,42.52,-70.57